Home   Weather   Campbelltown   Past weeks

Flag for Australia Past Weather in Campbelltown, New South Wales, Australia — Yesterday and Last 2 Weeks

Now
100 °F

Extremely hot.


Feels Like: 100 °F
Forecast: 69 / 95 °F
Wind: 5 mph from North

Location: Camden Airport

Current Time: Jan 17, 2017 at 3:49:12 pm

Latest Report: Jan 17, 2017 at 1:00 pm


Visibility: N/A

Pressure: 29.81 "Hg

Humidity: 27%

Dew Point: 60 °F

Location of CampbelltownLocation

Past Weather in Campbelltown — Graph

°F

Campbelltown Temperature Yesterday

Maximum temperature yesterday: 92 °F (at 3:00 pm)
Minimum temperature yesterday: 66 °F (at 6:00 am)
Average temperature yesterday: 77 °F

High & Low Weather Summary for the Past Weeks

 TemperatureHumidityPressure
High110 °F (Jan 13, 4:00 pm)99% (Jan 6, 3:00 am)30.17 "Hg (Jan 6, 3:00 am)
Low59 °F (Jan 7, 6:00 am)13% (Jan 14, 4:00 pm)29.41 "Hg (Jan 13, 6:00 pm)
Average76 °F67%29.90 "Hg
* Reported Jan 2 1:00 pm — Jan 17 1:00 pm, Campbelltown, Weather by CustomWeather, © 2017

Note: Actual official high and low records may vary slightly from our data, if they occured in-between our weather recording intervals... More about our weather records

Advertising

Campbelltown Weather History for the Previous 24 Hours

Scroll right to see more
 ConditionsComfort  
Time TempWeatherWind HumidityBarometerVisibility
1:00 pm
Tue, Jan 17
100 °FExtremely hot.5 mph27%29.81 "HgN/A
12:00 pm96 °FExtremely hot.9 mph32%29.84 "HgN/A
10:00 am82 °FWarm.3 mph54%29.91 "HgN/A
9:00 am76 °FMild.2 mph67%29.93 "HgN/A
7:00 am64 °FMild.No wind98%29.94 "HgN/A
6:00 am62 °FCool.No wind99%29.93 "Hg1 mi
4:00 am64 °FMild.No wind94%29.91 "HgN/A
3:00 am65 °FMild.No wind90%29.93 "Hg3 mi
1:00 am67 °FMild.No wind86%29.96 "HgN/A
12:00 am69 °FMild.No wind84%29.97 "HgN/A
10:00 pm
Mon, Jan 16
72 °FMild.No wind73%29.97 "HgN/A
9:00 pm74 °FMild.7 mph68%29.96 "HgN/A
7:00 pm81 °FWarm.13 mph53%29.91 "HgN/A
6:00 pm85 °FWarm.14 mph47%29.88 "HgN/A
4:00 pm89 °FHot.15 mph41%29.88 "HgN/A
3:00 pm92 °FHot.15 mph32%29.89 "HgN/A
Weather by CustomWeather, © 2017

See weather overviewHow to use our weather pages